• In Österreich
  • Länderverzeichnis
  • Für 7 Tage
  • Wassertemperatur
  • Satellitenkarten
  • Wetterkarte
  • News
  • Widgets
  • user-avatar
    Anmelden

    Stündliche Wetter Brisbane

    Heute, 20 August, Montag

    Zeit Temperatur Niederschläge Wind Luftdruck Luftfeuchtigkeit
    00:00 +11°C° 0 mm 7 m/S 761 mmHg 34%
    01:00 +11°C° 0 mm 8 m/S 762 mmHg 36%
    02:00 +10°C° 0 mm 7 m/S 762 mmHg 37%
    03:00 +9°C° 0 mm 7 m/S 762 mmHg 38%
    04:00 +9°C° 0 mm 7 m/S 761 mmHg 40%
    05:00 +9°C° 0 mm 7 m/S 761 mmHg 40%
    06:00 +9°C° 0 mm 6 m/S 761 mmHg 39%
    07:00 +8°C° 0 mm 6 m/S 762 mmHg 39%
    08:00 +11°C° 0 mm 6 m/S 762 mmHg 32%
    09:00 +14°C° 0 mm 6 m/S 762 mmHg 24%
    10:00 +16°C° 0 mm 5 m/S 762 mmHg 19%
    11:00 +17°C° 0 mm 5 m/S 761 mmHg 16%
    12:00 +20°C° 0 mm 5 m/S 761 mmHg 13%
    13:00 +22°C° 0 mm 4 m/S 761 mmHg 10%
    14:00 +22°C° 0 mm 4 m/S 761 mmHg 11%
    15:00 +22°C° 0 mm 4 m/S 761 mmHg 12%
    16:00 +21°C° 0 mm 3 m/S 760 mmHg 14%
    17:00 +19°C° 0 mm 3 m/S 761 mmHg 18%
    18:00 +16°C° 0 mm 2 m/S 762 mmHg 23%
    19:00 +14°C° 0 mm 2 m/S 762 mmHg 27%
    20:00 +14°C° 0 mm 2 m/S 762 mmHg 28%
    21:00 +13°C° 0 mm 2 m/S 763 mmHg 29%
    22:00 +12°C° 0 mm 2 m/S 763 mmHg 31%
    23:00 +11°C° 0 mm 3 m/S 763 mmHg 32%

    Morgen, 21 August, Dienstag

    Zeit Temperatur Niederschläge Wind Luftdruck Luftfeuchtigkeit
    00:00 +10°C° 0 mm 3 m/S 763 mmHg 33%
    01:00 +10°C° 0 mm 3 m/S 763 mmHg 34%
    02:00 +9°C° 0 mm 3 m/S 763 mmHg 37%
    03:00 +9°C° 0 mm 3 m/S 763 mmHg 39%
    04:00 +7°C° 0 mm 4 m/S 763 mmHg 41%
    05:00 +8°C° 0 mm 3 m/S 763 mmHg 42%
    06:00 +8°C° 0 mm 3 m/S 763 mmHg 44%
    07:00 +8°C° 0 mm 3 m/S 763 mmHg 45%
    08:00 +11°C° 0 mm 3 m/S 763 mmHg 37%
    09:00 +14°C° 0 mm 3 m/S 762 mmHg 30%
    10:00 +18°C° 0 mm 3 m/S 762 mmHg 23%
    11:00 +20°C° 0 mm 3 m/S 761 mmHg 20%
    12:00 +23°C° 0 mm 2 m/S 761 mmHg 17%
    13:00 +24°C° 0 mm 2 m/S 760 mmHg 14%
    14:00 +24°C° 0 mm 2 m/S 759 mmHg 15%
    15:00 +24°C° 0 mm 3 m/S 759 mmHg 16%
    16:00 +24°C° 0 mm 3 m/S 759 mmHg 17%
    17:00 +21°C° 0 mm 3 m/S 759 mmHg 22%
    18:00 +18°C° 0 mm 4 m/S 759 mmHg 26%
    19:00 +15°C° 0 mm 4 m/S 760 mmHg 31%
    20:00 +14°C° 0 mm 4 m/S 760 mmHg 34%
    21:00 +13°C° 0 mm 4 m/S 761 mmHg 36%
    22:00 +12°C° 0 mm 4 m/S 761 mmHg 39%
    23:00 +11°C° 0 mm 4 m/S 761 mmHg 41%

    übermorgen, 22 August, Mittwoch

    Zeit Temperatur Niederschläge Wind Luftdruck Luftfeuchtigkeit
    00:00 +11°C° 0 mm 4 m/S 761 mmHg 43%
    01:00 +10°C° 0 mm 4 m/S 761 mmHg 46%
    02:00 +10°C° 0 mm 4 m/S 761 mmHg 48%
    03:00 +9°C° 0 mm 3 m/S 761 mmHg 50%
    04:00 +9°C° 0 mm 3 m/S 761 mmHg 53%
    05:00 +9°C° 0 mm 3 m/S 761 mmHg 53%
    06:00 +9°C° 0 mm 3 m/S 761 mmHg 53%
    07:00 +9°C° 0 mm 3 m/S 762 mmHg 53%
    08:00 +12°C° 0 mm 3 m/S 762 mmHg 44%
    09:00 +16°C° 0 mm 3 m/S 762 mmHg 35%
    10:00 +19°C° 0 mm 3 m/S 762 mmHg 27%
    11:00 +21°C° 0 mm 3 m/S 761 mmHg 23%
    12:00 +23°C° 0 mm 2 m/S 760 mmHg 20%
    13:00 +25°C° 0 mm 2 m/S 759 mmHg 16%
    14:00 +25°C° 0 mm 2 m/S 759 mmHg 17%
    15:00 +24°C° 0 mm 3 m/S 759 mmHg 18%
    16:00 +24°C° 0 mm 3 m/S 758 mmHg 19%
    17:00 +21°C° 0 mm 3 m/S 759 mmHg 24%
    18:00 +18°C° 0 mm 2 m/S 760 mmHg 30%
    19:00 +16°C° 0 mm 2 m/S 760 mmHg 36%
    20:00 +15°C° 0 mm 2 m/S 761 mmHg 38%
    21:00 +14°C° 0 mm 2 m/S 761 mmHg 39%
    22:00 +13°C° 0 mm 2 m/S 762 mmHg 40%
    23:00 +12°C° 0 mm 2 m/S 762 mmHg 41%

    23 August, Donnerstag

    Zeit Temperatur Niederschläge Wind Luftdruck Luftfeuchtigkeit
    00:00 +12°C° 0 mm 2 m/S 762 mmHg 42%
    01:00 +10°C° 0 mm 2 m/S 762 mmHg 43%
    02:00 +10°C° 0 mm 2 m/S 761 mmHg 44%
    03:00 +9°C° 0 mm 2 m/S 761 mmHg 44%
    04:00 +9°C° 0 mm 2 m/S 761 mmHg 44%
    05:00 +9°C° 0 mm 2 m/S 762 mmHg 44%
    06:00 +9°C° 0 mm 2 m/S 762 mmHg 45%
    07:00 +10°C° 0 mm 2 m/S 763 mmHg 45%
    08:00 +14°C° 0 mm 2 m/S 763 mmHg 39%
    09:00 +18°C° 0 mm 2 m/S 763 mmHg 34%
    10:00 +23°C° 0 mm 1 m/S 763 mmHg 28%
    11:00 +24°C° 0 mm 1 m/S 762 mmHg 25%
    12:00 +25°C° 0 mm 1 m/S 761 mmHg 22%
    13:00 +27°C° 0 mm 1 m/S 761 mmHg 18%
    14:00 +26°C° 0 mm 2 m/S 760 mmHg 21%
    15:00 +25°C° 0 mm 2 m/S 760 mmHg 23%
    16:00 +24°C° 0 mm 3 m/S 760 mmHg 26%
    17:00 +21°C° 0 mm 3 m/S 760 mmHg 36%
    18:00 +19°C° 0 mm 3 m/S 761 mmHg 46%
    19:00 +16°C° 0 mm 3 m/S 762 mmHg 57%
    20:00 +16°C° 0 mm 3 m/S 762 mmHg 63%
    21:00 +15°C° 0 mm 2 m/S 763 mmHg 69%
    22:00 +14°C° 0 mm 2 m/S 763 mmHg 75%
    23:00 +14°C° 0 mm 2 m/S 763 mmHg 77%

    24 August, Freitag

    Zeit Temperatur Niederschläge Wind Luftdruck Luftfeuchtigkeit
    00:00 +14°C° 0 mm 2 m/S 763 mmHg 79%
    01:00 +14°C° 0 mm 2 m/S 763 mmHg 82%
    02:00 +13°C° 0 mm 2 m/S 763 mmHg 83%
    03:00 +13°C° 0 mm 2 m/S 763 mmHg 84%
    04:00 +13°C° 0 mm 2 m/S 762 mmHg 85%
    05:00 +13°C° 0 mm 2 m/S 763 mmHg 84%
    06:00 +14°C° 0 mm 2 m/S 763 mmHg 83%
    07:00 +14°C° 0 mm 2 m/S 764 mmHg 82%
    08:00 +17°C° 0 mm 2 m/S 764 mmHg 72%
    09:00 +19°C° 0 mm 3 m/S 764 mmHg 62%
    10:00 +21°C° 0 mm 3 m/S 764 mmHg 52%
    11:00 +22°C° 0,3 mm 3 m/S 763 mmHg 53%
    12:00 +22°C° 0,3 mm 3 m/S 763 mmHg 53%
    13:00 +22°C° 0,3 mm 4 m/S 762 mmHg 54%
    14:00 +21°C° 0,4 mm 4 m/S 762 mmHg 60%
    15:00 +20°C° 0,4 mm 4 m/S 762 mmHg 65%
    16:00 +19°C° 0,4 mm 4 m/S 762 mmHg 71%
    17:00 +18°C° 0,5 mm 3 m/S 762 mmHg 75%
    18:00 +18°C° 0,5 mm 3 m/S 763 mmHg 78%
    19:00 +17°C° 0,5 mm 3 m/S 763 mmHg 82%
    20:00 +17°C° 0,6 mm 3 m/S 763 mmHg 83%
    21:00 +16°C° 0,6 mm 3 m/S 763 mmHg 84%
    22:00 +16°C° 0,6 mm 3 m/S 764 mmHg 84%
    23:00 +16°C° 0,9 mm 3 m/S 763 mmHg 85%

    25 August, Samstag

    Zeit Temperatur Niederschläge Wind Luftdruck Luftfeuchtigkeit
    00:00 +16°C° 0,9 mm 3 m/S 763 mmHg 85%
    01:00 +16°C° 0,9 mm 3 m/S 763 mmHg 85%
    02:00 +16°C° 0,3 mm 3 m/S 763 mmHg 85%
    03:00 +15°C° 0,3 mm 4 m/S 763 mmHg 85%
    04:00 +15°C° 0,3 mm 4 m/S 763 mmHg 85%
    05:00 +15°C° 0,2 mm 4 m/S 763 mmHg 85%
    06:00 +15°C° 0,2 mm 4 m/S 764 mmHg 85%
    07:00 +16°C° 0,2 mm 3 m/S 764 mmHg 85%
    08:00 +18°C° 0,6 mm 4 m/S 764 mmHg 81%
    09:00 +19°C° 0,6 mm 4 m/S 764 mmHg 76%
    10:00 +20°C° 0,6 mm 4 m/S 764 mmHg 72%
    11:00 +20°C° 0,9 mm 4 m/S 764 mmHg 72%
    12:00 +20°C° 0,9 mm 4 m/S 763 mmHg 72%
    13:00 +20°C° 0,9 mm 4 m/S 762 mmHg 72%
    14:00 +20°C° 0,6 mm 4 m/S 762 mmHg 75%
    15:00 +19°C° 0,6 mm 4 m/S 762 mmHg 78%
    16:00 +18°C° 0,6 mm 4 m/S 762 mmHg 81%
    17:00 +18°C° 0,8 mm 4 m/S 762 mmHg 84%
    18:00 +17°C° 0,8 mm 4 m/S 763 mmHg 87%
    19:00 +17°C° 0,8 mm 4 m/S 763 mmHg 90%
    20:00 +17°C° 1,6 mm 4 m/S 763 mmHg 91%
    21:00 +17°C° 1,6 mm 4 m/S 763 mmHg 91%
    22:00 +17°C° 1,6 mm 4 m/S 763 mmHg 92%
    23:00 +17°C° 1,4 mm 4 m/S 763 mmHg 92%
    Mehr zeigen